| time (UTC) | temp F | wind direction | speed MPH | gust MPH | rain 1hr in | rain 24hr in | rain mn in | humidity % | barometer mb |
| 20260831095909 | 66 | 213 | 9.0 | 20.0 | 0.00 | 0.02 | 0.02 | 73 | 1013.5 |
| 20260831094905 | 66 | 215 | 8.0 | 18.0 | 0.00 | 0.02 | 0.02 | 74 | 1013.4 |
| 20260831094403 | 66 | 240 | 8.0 | 15.0 | 0.00 | 0.02 | 0.02 | 74 | 1013.4 |
| 20260831093404 | 65 | 259 | 9.0 | 15.0 | 0.00 | 0.02 | 0.02 | 75 | 1013.5 |
| 20260831092905 | 65 | 232 | 12.0 | 24.0 | 0.00 | 0.02 | 0.02 | 76 | 1013.5 |
| 20260831092404 | 65 | 231 | 13.0 | 18.0 | 0.00 | 0.02 | 0.02 | 78 | 1013.4 |
| 20260831091904 | 65 | 224 | 9.0 | 32.0 | 0.00 | 0.02 | 0.02 | 79 | 1013.4 |
| 20260831091404 | 64 | 250 | 8.0 | 17.0 | 0.00 | 0.02 | 0.02 | 83 | 1013.4 |
| 20260831090403 | 63 | 224 | 7.0 | 15.0 | 0.00 | 0.02 | 0.02 | 84 | 1013.4 |
| 20260831085905 | 64 | 238 | 13.0 | 13.0 | 0.00 | 0.02 | 0.02 | 82 | 1013.4 |
| 20260831085404 | 64 | 235 | 15.0 | 16.0 | 0.00 | 0.02 | 0.02 | 79 | 1013.3 |
| 20260831084404 | 65 | 216 | 10.0 | 29.0 | 0.00 | 0.02 | 0.02 | 74 | 1013.3 |
| 20260831083904 | 65 | 215 | 10.0 | 30.0 | 0.00 | 0.02 | 0.02 | 73 | 1013.2 |
| 20260831082906 | 65 | 212 | 9.0 | 21.0 | 0.00 | 0.02 | 0.02 | 76 | 1013.2 |
| 20260831082404 | 65 | 229 | 9.0 | 23.0 | 0.00 | 0.02 | 0.02 | 76 | 1013.3 |
| 20260831081904 | 65 | 201 | 9.0 | 17.0 | 0.00 | 0.02 | 0.02 | 77 | 1013.3 |
| 20260831081405 | 65 | 228 | 8.0 | 16.0 | 0.00 | 0.02 | 0.02 | 77 | 1013.3 |
| 20260831075906 | 64 | 206 | 8.0 | 18.0 | 0.00 | 0.02 | 0.02 | 78 | 1013.3 |
| 20260831075405 | 64 | 233 | 8.0 | 13.0 | 0.00 | 0.02 | 0.02 | 78 | 1013.2 |
| 20260831074404 | 64 | 211 | 9.0 | 14.0 | 0.00 | 0.02 | 0.02 | 77 | 1013.2 |
| 20260831073904 | 64 | 224 | 7.0 | 16.0 | 0.00 | 0.02 | 0.02 | 77 | 1013.2 |
| 20260831073403 | 64 | 203 | 7.0 | 21.0 | 0.00 | 0.02 | 0.02 | 77 | 1013.2 |
| 20260831071904 | 64 | 235 | 9.0 | 16.0 | 0.00 | 0.02 | 0.02 | 77 | 1013.2 |
| 20260831070404 | 64 | 212 | 9.0 | 21.0 | 0.00 | 0.02 | 0.02 | 78 | 1013.1 |
| 20260831065904 | 64 | 239 | 8.0 | 16.0 | 0.00 | 0.02 | 0.02 | 79 | 1013.1 |
| 20260831064904 | 64 | 202 | 9.0 | 15.0 | 0.00 | 0.02 | 0.02 | 79 | 1012.9 |
| 20260831064404 | 64 | 204 | 9.0 | 14.0 | 0.00 | 0.02 | 0.02 | 79 | 1012.9 |
| 20260831063904 | 64 | 206 | 9.0 | 16.0 | 0.00 | 0.02 | 0.02 | 79 | 1013.1 |
| 20260831062906 | 64 | 238 | 8.0 | 16.0 | 0.00 | 0.02 | 0.02 | 79 | 1013.1 |
| 20260831061904 | 64 | 202 | 8.0 | 16.0 | 0.00 | 0.02 | 0.02 | 81 | 1013.0 |
| 20260831061404 | 63 | 223 | 8.0 | 16.0 | 0.00 | 0.02 | 0.02 | 81 | 1013.0 |
| 20260831060904 | 63 | 201 | 8.0 | 15.0 | 0.00 | 0.02 | 0.02 | 81 | 1012.9 |
| 20260831060404 | 63 | 230 | 8.0 | 13.0 | 0.00 | 0.02 | 0.02 | 81 | 1012.9 |
| 20260831054904 | 63 | 212 | 7.0 | 13.0 | 0.00 | 0.02 | 0.02 | 82 | 1012.9 |
| 20260831054405 | 63 | 205 | 8.0 | 17.0 | 0.00 | 0.02 | 0.02 | 82 | 1012.9 |
| 20260831050403 | 63 | 198 | 6.0 | 9.0 | 0.00 | 0.02 | 0.02 | 84 | 1012.7 |
| 20260831045405 | 62 | 190 | 6.0 | 9.0 | 0.00 | 0.02 | 0.02 | 84 | 1012.7 |
| 20260831044904 | 62 | 198 | 6.0 | 9.0 | 0.00 | 0.02 | 0.02 | 84 | 1012.7 |
| 20260831043905 | 62 | 196 | 6.0 | 10.0 | 0.00 | 0.02 | 0.02 | 83 | 1012.7 |
| 20260831042404 | 63 | 190 | 7.0 | 15.0 | 0.00 | 0.02 | 0.02 | 83 | 1012.8 |
| 20260831034904 | 63 | 196 | 7.0 | 12.0 | 0.00 | 0.02 | 0.02 | 84 | 1012.7 |
| 20260831033403 | 63 | 196 | 6.0 | 13.0 | 0.00 | 0.02 | 0.02 | 85 | 1012.7 |
| 20260831032906 | 63 | 207 | 6.0 | 12.0 | 0.00 | 0.02 | 0.02 | 85 | 1012.7 |
| 20260831032404 | 63 | 198 | 6.0 | 13.0 | 0.00 | 0.02 | 0.02 | 85 | 1012.7 |
| 20260831031405 | 63 | 198 | 6.0 | 9.0 | 0.00 | 0.02 | 0.02 | 84 | 1012.7 |
| 20260831030917 | 63 | 218 | 6.0 | 13.0 | 0.00 | 0.02 | 0.02 | 84 | 1012.8 |
| 20260831030407 | 63 | 212 | 6.0 | 13.0 | 0.00 | 0.02 | 0.02 | 84 | 1012.8 |
| 20260831025411 | 63 | 217 | 8.0 | 12.0 | 0.00 | 0.02 | 0.02 | 85 | 1012.8 |
| 20260831022403 | 64 | 219 | 7.0 | 10.0 | 0.00 | 0.02 | 0.02 | 85 | 1012.6 |
| 20260831021904 | 64 | 226 | 6.0 | 14.0 | 0.00 | 0.02 | 0.02 | 85 | 1012.6 |
| 20260831020904 | 64 | 224 | 7.0 | 13.0 | 0.00 | 0.02 | 0.02 | 86 | 1012.5 |
| 20260831015905 | 64 | 200 | 5.0 | 16.0 | 0.00 | 0.02 | 0.02 | 86 | 1012.5 |
| 20260831015404 | 64 | 187 | 5.0 | 14.0 | 0.00 | 0.02 | 0.02 | 86 | 1012.6 |
| 20260831013404 | 63 | 166 | 5.0 | 8.0 | 0.02 | 0.02 | 0.02 | 87 | 1012.6 |
| 20260831012905 | 64 | 230 | 5.0 | 9.0 | 0.02 | 0.02 | 0.02 | 87 | 1012.6 |
| 20260831011404 | 64 | 198 | 5.0 | 7.0 | 0.02 | 0.02 | 0.02 | 85 | 1012.6 |
| 20260831010905 | 64 | 219 | 3.0 | 8.0 | 0.02 | 0.02 | 0.02 | 85 | 1012.7 |
| 20260831010404 | 64 | 193 | 3.0 | 7.0 | 0.02 | 0.02 | 0.02 | 84 | 1012.7 |
| 20260831005905 | 64 | 165 | 3.0 | 6.0 | 0.02 | 0.02 | 0.02 | 83 | 1012.7 |
| 20260831005403 | 65 | 211 | 3.0 | 7.0 | 0.02 | 0.02 | 0.02 | 82 | 1012.8 |
| 20260831004904 | 65 | 232 | 5.0 | 6.0 | 0.02 | 0.02 | 0.02 | 81 | 1012.8 |
| 20260831003904 | 65 | 232 | 6.0 | 9.0 | 0.00 | 0.00 | 0.00 | 78 | 1012.4 |
| 20260831002906 | 65 | 176 | 6.0 | 10.0 | 0.00 | 0.00 | 0.00 | 76 | 1012.4 |
| 20260831000404 | 66 | 163 | 6.0 | 8.0 | 0.00 | 0.00 | 0.00 | 72 | 1012.6 |
| 20260830233904 | 65 | 162 | 3.0 | 7.0 | 0.00 | 0.02 | 0.00 | 74 | 1012.5 |
| 20260830232905 | 65 | 166 | 3.0 | 8.0 | 0.00 | 0.02 | 0.00 | 75 | 1012.5 |
| 20260830231404 | 65 | 159 | 3.0 | 5.0 | 0.00 | 0.02 | 0.00 | 76 | 1012.4 |
| 20260830230404 | 65 | 160 | 2.0 | 6.0 | 0.00 | 0.03 | 0.00 | 76 | 1012.6 |
| 20260830225905 | 64 | 155 | 3.0 | 5.0 | 0.00 | 0.03 | 0.00 | 76 | 1012.6 |
| 20260830224404 | 64 | 153 | 3.0 | 5.0 | 0.00 | 0.03 | 0.00 | 77 | 1012.6 |
| 20260830223403 | 64 | 167 | 3.0 | 6.0 | 0.00 | 0.03 | 0.00 | 77 | 1012.7 |
| 20260830221408 | 65 | 168 | 3.0 | 6.0 | 0.00 | 0.03 | 0.00 | 75 | 1012.7 |
| 20260830215905 | 66 | 161 | 3.0 | 6.0 | 0.00 | 0.03 | 0.00 | 74 | 1012.8 |
| 20260830215403 | 66 | 164 | 3.0 | 8.0 | 0.00 | 0.03 | 0.03 | 74 | 1012.8 |
| 20260830214903 | 66 | 149 | 3.0 | 7.0 | 0.00 | 0.03 | 0.03 | 74 | 1012.8 |
| 20260830214404 | 66 | 158 | 3.0 | 6.0 | 0.00 | 0.03 | 0.03 | 74 | 1012.8 |
| 20260830213904 | 66 | 158 | 3.0 | 8.0 | 0.00 | 0.03 | 0.03 | 74 | 1013.0 |
| 20260830213404 | 66 | 154 | 3.0 | 6.0 | 0.00 | 0.03 | 0.03 | 74 | 1013.0 |
| 20260830211903 | 65 | 162 | 3.0 | 6.0 | 0.00 | 0.03 | 0.03 | 75 | 1013.1 |
| 20260830211404 | 65 | 158 | 3.0 | 5.0 | 0.00 | 0.03 | 0.03 | 76 | 1013.1 |
| 20260830205404 | 65 | 163 | 3.0 | 5.0 | 0.00 | 0.03 | 0.03 | 76 | 1013.2 |
| 20260830204904 | 65 | 161 | 3.0 | 5.0 | 0.00 | 0.03 | 0.03 | 76 | 1013.2 |
| 20260830204405 | 66 | 163 | 3.0 | 6.0 | 0.00 | 0.03 | 0.03 | 75 | 1013.2 |
| 20260830203904 | 66 | 162 | 3.0 | 5.0 | 0.00 | 0.03 | 0.03 | 75 | 1013.2 |
| 20260830203404 | 66 | 163 | 2.0 | 7.0 | 0.00 | 0.03 | 0.03 | 74 | 1013.2 |
| 20260830202906 | 66 | 160 | 2.0 | 7.0 | 0.00 | 0.03 | 0.03 | 74 | 1013.2 |
| 20260830201903 | 66 | 155 | 2.0 | 6.0 | 0.00 | 0.03 | 0.03 | 75 | 1013.3 |
| 20260830201405 | 66 | 167 | 2.0 | 6.0 | 0.00 | 0.03 | 0.03 | 75 | 1013.3 |
| 20260830200404 | 66 | 156 | 2.0 | 6.0 | 0.00 | 0.03 | 0.03 | 76 | 1013.3 |
| 20260830191903 | 65 | 154 | 1.0 | 2.0 | 0.00 | 0.03 | 0.03 | 81 | 1013.6 |
| 20260830191404 | 65 | 153 | 0.0 | 2.0 | 0.00 | 0.03 | 0.03 | 81 | 1013.6 |
| 20260830185904 | 65 | 153 | 0.0 | 2.0 | 0.00 | 0.03 | 0.03 | 78 | 1013.6 |
| 20260830185403 | 66 | 153 | 0.0 | 2.0 | 0.00 | 0.03 | 0.03 | 77 | 1013.6 |
| 20260830183904 | 67 | 153 | 1.0 | 2.0 | 0.00 | 0.03 | 0.03 | 73 | 1013.6 |
| 20260830182905 | 67 | 150 | 1.0 | 3.0 | 0.00 | 0.03 | 0.03 | 72 | 1013.6 |
| 20260830181904 | 68 | 129 | 2.0 | 2.0 | 0.00 | 0.03 | 0.03 | 71 | 1013.7 |
| 20260830175404 | 69 | 183 | 2.0 | 3.0 | 0.00 | 0.03 | 0.03 | 68 | 1013.7 |
| 20260830173904 | 69 | 168 | 2.0 | 6.0 | 0.00 | 0.03 | 0.03 | 66 | 1013.8 |
| 20260830173404 | 69 | 159 | 2.0 | 7.0 | 0.00 | 0.03 | 0.03 | 66 | 1013.8 |
| 20260830171903 | 70 | 189 | 2.0 | 6.0 | 0.00 | 0.03 | 0.03 | 67 | 1013.9 |
| 20260830170403 | 70 | 185 | 2.0 | 6.0 | 0.00 | 0.04 | 0.03 | 66 | 1014.0 |
| 20260830165404 | 70 | 187 | 2.0 | 3.0 | 0.00 | 0.04 | 0.03 | 67 | 1013.9 |
| 20260830164404 | 70 | 204 | 2.0 | 3.0 | 0.00 | 0.04 | 0.03 | 67 | 1013.9 |
| 20260830162904 | 71 | 205 | 4.0 | 5.0 | 0.00 | 0.04 | 0.03 | 66 | 1014.1 |
| 20260830161904 | 71 | 218 | 5.0 | 8.0 | 0.00 | 0.04 | 0.03 | 65 | 1014.1 |
| 20260830155404 | 71 | 280 | 5.0 | 9.0 | 0.00 | 0.04 | 0.03 | 64 | 1014.3 |
| 20260830154403 | 71 | 259 | 5.0 | 9.0 | 0.00 | 0.04 | 0.03 | 64 | 1014.3 |
| 20260830152403 | 71 | 224 | 6.0 | 15.0 | 0.00 | 0.04 | 0.03 | 62 | 1014.4 |
| 20260830151904 | 71 | 209 | 7.0 | 16.0 | 0.00 | 0.04 | 0.03 | 63 | 1014.4 |
| 20260830151403 | 71 | 219 | 7.0 | 12.0 | 0.00 | 0.04 | 0.03 | 63 | 1014.4 |
| 20260830150903 | 71 | 204 | 7.0 | 9.0 | 0.00 | 0.04 | 0.03 | 63 | 1014.4 |
| 20260830144903 | 72 | 213 | 6.0 | 17.0 | 0.00 | 0.04 | 0.03 | 62 | 1014.4 |
| 20260830144403 | 72 | 221 | 6.0 | 12.0 | 0.00 | 0.04 | 0.03 | 62 | 1014.4 |
| 20260830143403 | 72 | 225 | 6.0 | 12.0 | 0.00 | 0.04 | 0.03 | 63 | 1014.5 |
| 20260830142905 | 72 | 226 | 6.0 | 9.0 | 0.00 | 0.04 | 0.03 | 62 | 1014.5 |
| 20260830142402 | 72 | 210 | 7.0 | 16.0 | 0.00 | 0.04 | 0.03 | 63 | 1014.6 |
| 20260830141903 | 71 | 230 | 6.0 | 13.0 | 0.00 | 0.04 | 0.03 | 64 | 1014.6 |
| 20260830140903 | 72 | 243 | 5.0 | 15.0 | 0.00 | 0.04 | 0.03 | 62 | 1014.7 |
| 20260830134404 | 71 | 215 | 6.0 | 15.0 | 0.00 | 0.04 | 0.03 | 61 | 1014.7 |
| 20260830132905 | 71 | 221 | 6.0 | 13.0 | 0.00 | 0.04 | 0.03 | 62 | 1014.8 |
| 20260830132403 | 71 | 254 | 6.0 | 13.0 | 0.00 | 0.04 | 0.03 | 62 | 1014.8 |
| 20260830131904 | 72 | 230 | 6.0 | 12.0 | 0.00 | 0.04 | 0.03 | 62 | 1014.8 |
| 20260830124903 | 71 | 207 | 7.0 | 29.0 | 0.00 | 0.04 | 0.03 | 61 | 1014.8 |
| 20260830124403 | 72 | 242 | 7.0 | 10.0 | 0.00 | 0.04 | 0.03 | 63 | 1014.8 |
| 20260830122905 | 71 | 223 | 10.0 | 16.0 | 0.00 | 0.04 | 0.03 | 63 | 1014.8 |
| 20260830122403 | 71 | 234 | 12.0 | 14.0 | 0.00 | 0.04 | 0.03 | 65 | 1014.8 |
| 20260830120904 | 71 | 198 | 10.0 | 25.0 | 0.00 | 0.04 | 0.03 | 63 | 1014.7 |
| 20260830114404 | 71 | 259 | 10.0 | 17.0 | 0.00 | 0.04 | 0.03 | 62 | 1014.7 |
| 20260830113904 | 71 | 229 | 10.0 | 16.0 | 0.00 | 0.04 | 0.03 | 63 | 1014.7 |
| 20260830112905 | 71 | 204 | 9.0 | 17.0 | 0.00 | 0.04 | 0.03 | 62 | 1014.7 |
| 20260830111404 | 71 | 223 | 8.0 | 15.0 | 0.00 | 0.04 | 0.03 | 62 | 1014.5 |
| 20260830110904 | 71 | 242 | 8.0 | 12.0 | 0.00 | 0.04 | 0.03 | 65 | 1014.5 |
| 20260830105904 | 71 | 241 | 8.0 | 16.0 | 0.00 | 0.04 | 0.03 | 65 | 1014.5 |
| 20260830104404 | 70 | 198 | 7.0 | 15.0 | 0.00 | 0.04 | 0.03 | 68 | 1014.6 |
| 20260830103404 | 70 | 251 | 7.0 | 15.0 | 0.00 | 0.04 | 0.03 | 67 | 1014.8 |
| 20260830102905 | 70 | 225 | 7.0 | 15.0 | 0.00 | 0.04 | 0.03 | 68 | 1014.8 |
| 20260830102404 | 70 | 233 | 7.0 | 12.0 | 0.00 | 0.04 | 0.03 | 69 | 1014.6 |
| 20260830101903 | 70 | 258 | 7.0 | 12.0 | 0.00 | 0.04 | 0.03 | 70 | 1014.6 |
| 20260830100902 | 69 | 238 | 8.0 | 14.0 | 0.00 | 0.04 | 0.03 | 71 | 1014.8 |
| 20260830100405 | 69 | 233 | 8.0 | 14.0 | 0.00 | 0.04 | 0.03 | 70 | 1014.8 |